This is the latest recevied weather packets stored in our database for station/object KI2K. If no packets are shown the sender has not sent any weather packets the latest 10 day(s).
| Time | Temp. | Humidity | Pressure | Rain* | Wind** | Luminosity | Snow |
|---|---|---|---|---|---|---|---|
| 1778096515 | 13.89° C | 61% | 1013.4 hPa | 0 mm | - | 218 W/m² | - |
| 1778096213 | 13.89° C | 65% | 1013.4 hPa | 0 mm | - | 199 W/m² | - |
| 1778095910 | 13.89° C | 67% | 1013.5 hPa | 0 mm | - | 211 W/m² | - |
| 1778095607 | 13.33° C | 64% | 1013.4 hPa | 0 mm | - | 203 W/m² | - |
| 1778095303 | 13.33° C | 63% | 1013.6 hPa | 0 mm | - | 218 W/m² | - |
| 1778095000 | 13.89° C | 61% | 1013.7 hPa | 0 mm | - | 202 W/m² | - |
| 1778094696 | 13.33° C | 62% | 1013.4 hPa | 0 mm | - | 181 W/m² | - |
| 1778094393 | 13.89° C | 66% | 1013.6 hPa | 0 mm | - | 188 W/m² | - |
| 1778094090 | 13.89° C | 68% | 1013.3 hPa | 0 mm | - | 215 W/m² | - |
| 1778093787 | 13.89° C | 67% | 1013.3 hPa | 0 mm | - | 255 W/m² | - |
| 1778093483 | 13.89° C | 65% | 1013.4 hPa | 0 mm | - | 301 W/m² | - |
| 1778093181 | 13.89° C | 66% | 1013.2 hPa | 0 mm | - | 270 W/m² | - |
| 1778092878 | 13.33° C | 68% | 1013.3 hPa | 0 mm | - | 238 W/m² | - |
| 1778092575 | 13.33° C | 66% | 1013.4 hPa | 0 mm | - | 219 W/m² | - |
| 1778092270 | 13.33° C | 66% | 1013.4 hPa | 0 mm | - | 223 W/m² | - |
| 1778091969 | 13.33° C | 65% | 1013.5 hPa | 0 mm | - | 212 W/m² | - |
| 1778091665 | 13.33° C | 63% | 1013.3 hPa | 0 mm | - | 198 W/m² | - |
| 1778091363 | 12.78° C | 64% | 1013.5 hPa | 0 mm | - | 207 W/m² | - |
| 1778091060 | 12.78° C | 67% | 1013.5 hPa | 0 mm | - | 191 W/m² | - |
| 1778090756 | 13.33° C | 67% | 1013.5 hPa | 0 mm | - | 200 W/m² | - |
| 1778090453 | 13.33° C | 69% | 1013.5 hPa | 0 mm | - | 190 W/m² | - |
| 1778090149 | 13.33° C | 67% | 1013.6 hPa | 0 mm | - | 173 W/m² | - |
| 1778089846 | 13.33° C | 67% | 1013.5 hPa | 0 mm | - | 188 W/m² | - |
| 1778089545 | 13.89° C | 67% | 1013.4 hPa | 0 mm | - | 251 W/m² | - |
| 1778089240 | 12.78° C | 64% | 1013.4 hPa | 0 mm | - | 258 W/m² | - |
* Rain latest hour (hover to see other rain measurements)
** Current wind speed in m/s (hover to see current wind gust speed)